When you browse on this site, cookies collect data to enhance your experience and personalize the content and advertising you see.
Visit our Privacy Policy to learn more. By continuing to use the site, you agree to this use of cookies and data.
  • In Lithuania
  • List of Countries
  • For 7 days
  • Water Temperature
  • Weather Map
  • Weather Widgets
  • user-avatar
    Login

    Hourly Weather Cudnochy

    Today, 21 August, Wednesday

    Time Temperature Precipitation Wind Pressure Humidity
    00:00 +18°C° 0 mm 3 mps 755 mmHg 71%
    01:00 +19°C° 0 mm 2 mps 755 mmHg 74%
    02:00 +18°C° 0.8 mm 2 mps 755 mmHg 79%
    03:00 +17°C° 0.8 mm 3 mps 754 mmHg 84%
    04:00 +16°C° 0.8 mm 3 mps 754 mmHg 88%
    05:00 +15°C° 2.9 mm 4 mps 754 mmHg 89%
    06:00 +14°C° 2.9 mm 5 mps 754 mmHg 91%
    07:00 +14°C° 2.9 mm 6 mps 754 mmHg 92%
    08:00 +13°C° 0.3 mm 5 mps 755 mmHg 92%
    09:00 +13°C° 0.3 mm 5 mps 755 mmHg 93%
    10:00 +13°C° 0.3 mm 5 mps 755 mmHg 93%
    11:00 +14°C° 0.1 mm 4 mps 756 mmHg 91%
    12:00 +14°C° 0.1 mm 4 mps 756 mmHg 89%
    13:00 +16°C° 0.1 mm 3 mps 757 mmHg 87%
    14:00 +17°C° 0 mm 3 mps 757 mmHg 81%
    15:00 +18°C° 0 mm 3 mps 757 mmHg 76%
    16:00 +19°C° 0 mm 3 mps 757 mmHg 70%
    17:00 +17°C° 0 mm 2 mps 758 mmHg 77%
    18:00 +16°C° 0 mm 1 mps 758 mmHg 83%
    19:00 +14°C° 0 mm 0 mps 758 mmHg 89%
    20:00 +15°C° 0 mm 1 mps 758 mmHg 90%
    21:00 +14°C° 0 mm 1 mps 758 mmHg 91%
    22:00 +14°C° 0 mm 1 mps 759 mmHg 92%
    23:00 +14°C° 0 mm 1 mps 759 mmHg 93%

    Tomorrow, 22 August, Thursday

    Time Temperature Precipitation Wind Pressure Humidity
    00:00 +13°C° 0 mm 1 mps 759 mmHg 94%
    01:00 +13°C° 0 mm 2 mps 759 mmHg 94%
    02:00 +13°C° 0 mm 1 mps 759 mmHg 94%
    03:00 +12°C° 0 mm 1 mps 759 mmHg 94%
    04:00 +12°C° 0 mm 1 mps 759 mmHg 93%
    05:00 +13°C° 0 mm 1 mps 759 mmHg 88%
    06:00 +15°C° 0 mm 1 mps 760 mmHg 84%
    07:00 +16°C° 0 mm 1 mps 760 mmHg 79%
    08:00 +19°C° 0 mm 1 mps 760 mmHg 71%
    09:00 +19°C° 0 mm 2 mps 760 mmHg 63%
    10:00 +21°C° 0 mm 2 mps 760 mmHg 56%
    11:00 +21°C° 0 mm 2 mps 760 mmHg 53%
    12:00 +23°C° 0 mm 2 mps 760 mmHg 50%
    13:00 +24°C° 0 mm 2 mps 760 mmHg 48%
    14:00 +23°C° 0 mm 2 mps 760 mmHg 49%
    15:00 +23°C° 0 mm 2 mps 760 mmHg 50%
    16:00 +23°C° 0 mm 2 mps 759 mmHg 51%
    17:00 +21°C° 0 mm 1 mps 759 mmHg 58%
    18:00 +19°C° 0 mm 1 mps 759 mmHg 65%
    19:00 +16°C° 0 mm 1 mps 759 mmHg 72%
    20:00 +16°C° 0 mm 1 mps 760 mmHg 74%
    21:00 +15°C° 0 mm 1 mps 760 mmHg 76%
    22:00 +15°C° 0 mm 1 mps 760 mmHg 78%
    23:00 +14°C° 0 mm 1 mps 760 mmHg 79%

    Day after tomorrow, 23 August, Friday

    Time Temperature Precipitation Wind Pressure Humidity
    00:00 +14°C° 0 mm 1 mps 760 mmHg 80%
    01:00 +14°C° 0 mm 2 mps 760 mmHg 80%
    02:00 +14°C° 0 mm 1 mps 760 mmHg 82%
    03:00 +13°C° 0 mm 1 mps 760 mmHg 83%
    04:00 +13°C° 0 mm 1 mps 760 mmHg 84%
    05:00 +14°C° 0 mm 1 mps 760 mmHg 79%
    06:00 +16°C° 0 mm 1 mps 760 mmHg 74%
    07:00 +19°C° 0 mm 1 mps 760 mmHg 69%
    08:00 +20°C° 0 mm 1 mps 760 mmHg 63%
    09:00 +22°C° 0 mm 1 mps 760 mmHg 57%
    10:00 +24°C° 0 mm 1 mps 760 mmHg 51%
    11:00 +24°C° 0 mm 1 mps 760 mmHg 48%
    12:00 +25°C° 0 mm 1 mps 760 mmHg 45%
    13:00 +26°C° 0 mm 1 mps 760 mmHg 42%
    14:00 +25°C° 0 mm 1 mps 760 mmHg 43%
    15:00 +25°C° 0 mm 1 mps 759 mmHg 44%
    16:00 +25°C° 0 mm 1 mps 759 mmHg 45%
    17:00 +23°C° 0 mm 1 mps 759 mmHg 52%
    18:00 +21°C° 0 mm 1 mps 759 mmHg 59%
    19:00 +19°C° 0 mm 1 mps 758 mmHg 66%
    20:00 +18°C° 0 mm 1 mps 759 mmHg 68%
    21:00 +18°C° 0 mm 1 mps 759 mmHg 69%
    22:00 +16°C° 0 mm 1 mps 759 mmHg 71%
    23:00 +15°C° 0 mm 1 mps 759 mmHg 73%

    24 August, Saturday

    Time Temperature Precipitation Wind Pressure Humidity
    00:00 +15°C° 0 mm 1 mps 759 mmHg 74%
    01:00 +14°C° 0 mm 1 mps 759 mmHg 76%
    02:00 +14°C° 0 mm 1 mps 758 mmHg 78%
    03:00 +14°C° 0 mm 1 mps 758 mmHg 80%
    04:00 +13°C° 0 mm 1 mps 758 mmHg 82%
    05:00 +15°C° 0 mm 1 mps 758 mmHg 78%
    06:00 +16°C° 0 mm 1 mps 758 mmHg 74%
    07:00 +19°C° 0 mm 1 mps 758 mmHg 69%
    08:00 +21°C° 0 mm 1 mps 758 mmHg 63%
    09:00 +22°C° 0 mm 1 mps 758 mmHg 57%
    10:00 +24°C° 0 mm 1 mps 758 mmHg 51%
    11:00 +25°C° 0 mm 2 mps 758 mmHg 49%
    12:00 +25°C° 0 mm 2 mps 758 mmHg 46%
    13:00 +26°C° 0 mm 2 mps 757 mmHg 43%
    14:00 +26°C° 0 mm 2 mps 757 mmHg 44%
    15:00 +26°C° 0 mm 2 mps 757 mmHg 45%
    16:00 +26°C° 0 mm 1 mps 756 mmHg 46%
    17:00 +24°C° 0 mm 1 mps 756 mmHg 53%
    18:00 +22°C° 0 mm 1 mps 756 mmHg 60%
    19:00 +19°C° 0 mm 1 mps 756 mmHg 67%
    20:00 +19°C° 0 mm 1 mps 756 mmHg 69%
    21:00 +18°C° 0 mm 1 mps 756 mmHg 70%
    22:00 +16°C° 0 mm 1 mps 757 mmHg 72%
    23:00 +16°C° 0 mm 1 mps 757 mmHg 74%

    25 August, Sunday

    Time Temperature Precipitation Wind Pressure Humidity
    00:00 +15°C° 0 mm 1 mps 757 mmHg 75%
    01:00 +15°C° 0 mm 1 mps 757 mmHg 77%
    02:00 +15°C° 0 mm 1 mps 757 mmHg 78%
    03:00 +14°C° 0 mm 1 mps 757 mmHg 79%
    04:00 +14°C° 0 mm 1 mps 756 mmHg 80%
    05:00 +15°C° 0 mm 1 mps 757 mmHg 76%
    06:00 +17°C° 0 mm 2 mps 757 mmHg 73%
    07:00 +18°C° 0 mm 2 mps 757 mmHg 69%
    08:00 +20°C° 0 mm 2 mps 757 mmHg 63%
    09:00 +22°C° 0 mm 3 mps 757 mmHg 57%
    10:00 +24°C° 0 mm 3 mps 757 mmHg 51%
    11:00 +25°C° 0 mm 3 mps 757 mmHg 50%
    12:00 +26°C° 0 mm 3 mps 757 mmHg 48%
    13:00 +26°C° 0 mm 3 mps 757 mmHg 47%
    14:00 +26°C° 0 mm 3 mps 756 mmHg 48%
    15:00 +26°C° 0 mm 3 mps 756 mmHg 49%
    16:00 +25°C° 0 mm 3 mps 756 mmHg 51%
    17:00 +22°C° 0 mm 3 mps 756 mmHg 58%
    18:00 +20°C° 0 mm 3 mps 756 mmHg 64%
    19:00 +18°C° 0 mm 2 mps 756 mmHg 71%
    20:00 +18°C° 0 mm 2 mps 756 mmHg 74%
    21:00 +17°C° 0 mm 2 mps 756 mmHg 76%
    22:00 +16°C° 0 mm 2 mps 756 mmHg 79%
    23:00 +16°C° 0 mm 3 mps 756 mmHg 80%

    26 August, Monday

    Time Temperature Precipitation Wind Pressure Humidity
    00:00 +14°C° 0 mm 3 mps 756 mmHg 81%
    01:00 +14°C° 0 mm 3 mps 756 mmHg 82%
    02:00 +13°C° 0 mm 3 mps 756 mmHg 82%
    03:00 +13°C° 0 mm 3 mps 755 mmHg 83%
    04:00 +13°C° 0 mm 3 mps 755 mmHg 83%
    05:00 +14°C° 0 mm 3 mps 755 mmHg 79%
    06:00 +16°C° 0 mm 3 mps 755 mmHg 75%
    07:00 +18°C° 0 mm 4 mps 755 mmHg 71%
    08:00 +20°C° 0 mm 4 mps 755 mmHg 67%
    09:00 +21°C° 0 mm 4 mps 754 mmHg 63%
    10:00 +23°C° 0 mm 4 mps 754 mmHg 59%
    11:00 +25°C° 0 mm 5 mps 754 mmHg 57%
    12:00 +26°C° 0 mm 5 mps 754 mmHg 54%
    13:00 +28°C° 0 mm 5 mps 753 mmHg 51%
    14:00 +28°C° 0 mm 5 mps 753 mmHg 52%
    15:00 +27°C° 0 mm 5 mps 752 mmHg 53%
    16:00 +27°C° 0 mm 5 mps 752 mmHg 54%
    17:00 +26°C° 0 mm 4 mps 752 mmHg 61%
    18:00 +23°C° 0 mm 4 mps 751 mmHg 68%
    19:00 +21°C° 0 mm 3 mps 751 mmHg 75%
    20:00 +21°C° 0 mm 4 mps 751 mmHg 76%
    21:00 +20°C° 0 mm 4 mps 751 mmHg 77%
    22:00 +20°C° 0 mm 4 mps 751 mmHg 78%
    23:00 +19°C° 0 mm 4 mps 750 mmHg 80%
    Show more